Probability
48 42 32 16 0 0 0 0 0 0 0 0 0 0 0 0 0 0 0 3 3 3 16 35 42 45 42 48 42 39 35 26 29 26 23 29 26 26 26 29 32 35 48 45 45 55 55 61 55
39 45 23 3 0 0 0 0 0 0 0 0 0 0 0 0 0 0 0 3 6 3 6 19 39 42 39 35 35 29 19 16 19 19 19 19 19 19 26 23 26 26 32 42 39 45 48 48 52
45 39 0 0 0 0 0 0 0 0 3 0 0 0 0 0 0 0 0 3 3 3 6 26 32 35 26 23 23 16 19 13 13 13 13 13 16 19 23 19 19 19 29 35 48 45 42 42 42
19 0 0 0 0 0 0 0 0 0 0 0 0 0 3 3 3 0 0 0 3 3 3 16 23 23 23 19 19 19 19 16 16 16 16 13 16 16 13 19 13 10 13 29 39 39 35 42 42
0 0 0 0 0 0 0 0 0 0 0 0 0 0 0 3 0 0 0 0 3 3 3 6 16 16 16 16 16 16 19 19 19 19 19 19 19 19 16 13 13 6 16 19 23 29 23 29 32
0 0 0 0 0 0 0 0 0 0 0 0 0 0 0 0 0 0 0 0 3 3 3 6 16 10 13 16 16 16 19 16 16 16 16 19 19 10 10 6 10 10 19 16 26 23 19 26 32
0 0 0 0 0 0 0 0 0 0 0 0 0 0 0 3 0 0 0 0 3 3 3 3 6 6 10 13 13 16 13 6 6 10 10 16 10 10 6 10 13 13 19 19 19 19 19 19 29
0 0 0 0 0 0 0 0 0 0 0 0 0 0 0 3 3 0 0 0 3 0 0 0 0 0 0 3 6 3 3 3 6 10 10 10 10 10 6 10 13 6 10 13 16 13 16 16 26
0 0 0 0 0 0 0 0 0 0 0 0 0 0 0 3 3 0 0 0 0 0 0 0 0 0 0 0 0 0 3 3 6 10 10 0 0 0 3 10 10 6 6 10 13 16 16 13 16
0 0 0 0 0 0 0 0 0 0 0 0 0 0 0 0 0 0 0 0 0 0 0 0 0 0 0 0 0 0 0 0 0 0 0 0 0 0 0 6 6 10 6 6 13 13 3 0 3
0 0 0 0 0 0 0 0 0 0 0 0 0 0 0 0 0 0 0 0 0 0 0 0 0 0 0 0 0 0 0 0 0 0 0 0 0 0 0 0 0 0 0 0 0 0 0 0 0
0 0 0 0 0 0 0 0 0 0 0 0 0 0 0 0 0 0 0 0 0 0 0 0 0 0 0 0 0 0 0 0 0 0 0 0 0 0 0 0 0 0 0 0 0 0 0 0 0
0 0 0 0 0 0 0 0 0 0 0 0 0 0 0 0 0 0 0 0 0 0 0 0 0 0 0 0 0 0 0 0 0 0 0 0 0 0 0 0 0 0 0 0 0 0 0 0 0
0 0 0 0 0 0 0 0 0 0 0 0 0 0 0 0 0 0 0 0 0 0 0 0 0 0 0 0 0 0 0 0 0 0 0 0 0 0 0 0 0 0 0 0 0 0 0 0 0
0 0 0 0 0 0 0 0 0 0 0 0 0 0 0 0 0 0 0 0 0 0 0 0 0 0 0 0 0 0 0 0 0 0 0 0 0 0 0 0 0 0 0 0 0 0 0 0 0
0 0 0 0 0 0 0 0 0 0 0 0 0 0 0 0 0 0 0 0 0 0 0 0 0 0 0 0 0 0 0 0 0 0 0 0 0 0 0 0 0 0 0 0 0 0 0 0 0
0 0 0 0 0 0 0 0 0 0 0 0 0 0 0 0 0 0 0 0 0 0 0 0 0 0 0 0 0 0 0 0 0 0 0 0 0 0 0 0 0 0 0 0 0 0 0 0 0
0 0 0 0 0 0 0 0 0 0 0 0 0 0 0 0 0 0 0 0 0 0 0 0 0 0 0 0 0 0 0 0 0 0 0 0 0 0 0 0 0 0 0 0 0 0 0 0 0
0 0 0 0 0 0 0 0 0 0 0 0 0 0 0 0 0 0 0 0 0 0 0 0 0 0 0 0 0 0 0 0 0 0 0 0 0 0 0 0 0 0 0 0 0 0 0 0 0
0 0 0 0 0 0 0 0 0 0 0 0 0 0 0 0 0 0 0 0 0 0 0 0 0 0 0 0 0 0 0 0 0 0 0 0 0 0 0 0 0 0 0 0 0 0 0 0 0
0 0 0 0 0 0 0 0 0 0 0 0 0 0 0 0 0 0 0 0 0 0 0 0 0 0 0 0 0 0 0 0 0 0 0 0 0 0 0 0 0 0 0 0 0 0 0 0 0
0 0 0 0 0 0 0 0 0 0 0 0 0 0 0 0 0 0 0 0 0 0 0 0 0 0 0 0 0 0 0 0 0 0 0 0 0 0 0 0 0 0 0 0 0 0 0 0 0
0 0 0 0 0 0 0 0 0 0 0 0 0 0 0 0 0 0 0 0 0 0 0 0 0 0 0 0 0 0 0 0 0 0 0 0 0 0 0 0 0 0 0 0 0 0 0 0 0
0 0 0 0 0 0 0 0 0 0 0 0 0 0 0 0 0 0 0 0 0 0 0 0 0 0 0 0 0 0 0 0 0 0 0 0 0 0 0 0 0 0 0 0 0 0 0 0 0
0 0 0 0 0 0 0 0 0 0 0 0 0 0 0 0 0 0 0 0 0 0 0 0 0 0 0 0 0 0 0 0 0 0 0 0 0 0 0 0 0 0 0 0 0 0 0 0 0
0 0 0 0 0 0 0 0 0 0 0 0 0 0 0 0 0 0 0 0 0 0 0 0 0 0 0 0 0 0 0 0 0 0 0 0 0 0 0 0 0 0 0 0 0 0 0 0 0
0 0 0 0 0 0 0 0 0 0 0 0 0 0 0 0 0 0 0 0 0 0 0 0 0 0 0 0 0 0 0 0 0 0 0 0 0 0 0 0 0 0 0 0 0 0 0 0 0
0 0 0 0 0 0 0 0 0 0 0 0 0 0 0 0 0 0 0 0 0 0 0 0 0 0 0 0 0 0 0 0 0 0 0 0 0 0 0 0 0 0 0 0 0 0 0 0 0
0 0 0 0 0 0 0 0 0 0 0 0 0 0 0 0 0 0 0 0 0 0 0 0 0 0 0 0 0 0 0 0 0 0 0 0 0 0 0 0 0 0 0 0 0 0 0 0 0
0 0 0 0 0 0 0 0 0 0 0 0 0 0 0 0 0 0 0 0 0 0 0 0 0 0 0 0 0 0 0 0 0 0 0 0 0 0 0 0 0 0 0 0 0 0 0 0 0
Height
5894 5894 5894 5895 5895 5894 5894 5894 5894 5894 5894 5893 5893 5893 5893 5894 5895 5897 5894 5892 5891 5891 5890 5890 5890 5889 5889 5889 5888 5888 5887 5887 5886 5885 5884 5883 5883 5882 5882 5881 5880 5880 5880 5880 5879 5880 5880 5880 5881
5894 5894 5894 5895 5894 5894 5894 5893 5893 5893 5893 5893 5892 5893 5893 5893 5893 5893 5891 5891 5890 5890 5890 5889 5889 5888 5888 5888 5888 5887 5887 5886 5885 5884 5883 5882 5881 5881 5880 5879 5879 5879 5878 5878 5878 5878 5878 5878 5879
5892 5893 5894 5893 5893 5893 5893 5893 5892 5892 5892 5892 5892 5892 5892 5892 5892 5891 5891 5890 5889 5889 5889 5889 5888 5888 5887 5887 5887 5886 5886 5885 5884 5883 5882 5881 5880 5879 5879 5878 5877 5877 5876 5876 5876 5876 5876 5877 5877
5891 5892 5893 5892 5892 5892 5892 5892 5891 5891 5891 5891 5891 5891 5890 5891 5891 5890 5889 5889 5889 5889 5888 5888 5887 5887 5887 5886 5886 5885 5885 5884 5883 5882 5881 5880 5879 5878 5877 5876 5876 5875 5874 5874 5873 5874 5874 5874 5875
5890 5891 5891 5891 5891 5891 5890 5890 5890 5890 5890 5889 5889 5889 5889 5889 5889 5888 5888 5888 5888 5887 5887 5887 5886 5886 5886 5885 5885 5884 5883 5882 5881 5880 5879 5878 5877 5876 5875 5875 5874 5873 5872 5872 5871 5871 5872 5872 5873
5889 5889 5890 5889 5889 5889 5889 5889 5889 5889 5888 5888 5888 5888 5887 5888 5887 5887 5886 5886 5886 5886 5886 5886 5885 5885 5885 5884 5884 5883 5882 5881 5880 5879 5878 5877 5876 5875 5874 5873 5872 5871 5870 5869 5869 5869 5869 5870 5871
5889 5888 5888 5888 5888 5888 5888 5888 5887 5887 5887 5887 5887 5886 5886 5886 5886 5886 5886 5885 5885 5885 5885 5885 5884 5884 5884 5883 5883 5882 5882 5880 5879 5878 5877 5876 5875 5873 5872 5871 5870 5869 5868 5867 5867 5867 5867 5868 5869
5887 5887 5886 5886 5886 5887 5887 5886 5886 5885 5885 5885 5885 5885 5884 5884 5884 5884 5884 5884 5884 5884 5884 5884 5883 5883 5882 5882 5882 5881 5881 5880 5878 5877 5876 5875 5874 5872 5870 5869 5868 5867 5866 5866 5865 5866 5866 5866 5867
5885 5886 5885 5885 5885 5885 5885 5885 5884 5883 5883 5883 5883 5883 5882 5882 5882 5882 5883 5883 5883 5883 5883 5883 5882 5882 5882 5881 5881 5881 5880 5879 5878 5877 5876 5874 5873 5871 5869 5868 5867 5865 5865 5864 5864 5864 5864 5865 5866
5884 5884 5884 5883 5883 5883 5883 5883 5882 5882 5881 5881 5881 5881 5880 5880 5880 5881 5881 5882 5882 5882 5882 5881 5881 5881 5881 5880 5880 5880 5880 5879 5878 5876 5875 5873 5872 5870 5868 5867 5865 5864 5863 5863 5862 5862 5863 5863 5864
5882 5882 5881 5881 5881 5881 5881 5881 5880 5880 5880 5879 5879 5879 5879 5879 5879 5879 5880 5880 5880 5880 5880 5881 5880 5880 5880 5880 5880 5880 5879 5879 5877 5876 5874 5873 5871 5869 5868 5866 5864 5863 5862 5861 5861 5861 5861 5862 5863
5880 5880 5880 5879 5879 5879 5879 5878 5878 5878 5878 5877 5877 5877 5877 5877 5877 5878 5878 5878 5878 5879 5879 5879 5879 5879 5879 5879 5879 5879 5879 5878 5877 5876 5874 5873 5871 5869 5867 5865 5864 5862 5861 5860 5860 5860 5860 5861 5862
5879 5878 5878 5877 5877 5877 5877 5877 5876 5876 5875 5875 5875 5875 5875 5875 5875 5876 5876 5877 5877 5877 5878 5878 5878 5879 5878 5879 5879 5879 5878 5877 5877 5875 5874 5872 5870 5869 5867 5865 5863 5862 5861 5860 5860 5860 5859 5860 5861
5877 5876 5876 5875 5875 5875 5875 5875 5875 5874 5874 5873 5873 5873 5873 5873 5874 5874 5875 5875 5876 5876 5877 5877 5877 5878 5878 5878 5878 5878 5878 5877 5876 5875 5874 5872 5870 5868 5867 5865 5863 5862 5860 5860 5860 5860 5860 5860 5861
5875 5875 5874 5873 5873 5873 5873 5873 5873 5872 5872 5871 5871 5871 5871 5872 5873 5873 5873 5874 5875 5875 5876 5876 5876 5877 5877 5877 5878 5878 5877 5877 5876 5875 5873 5872 5870 5868 5867 5865 5864 5862 5861 5860 5860 5860 5860 5861 5861
5872 5872 5872 5872 5871 5871 5873 5872 5871 5870 5870 5870 5869 5869 5870 5871 5871 5872 5872 5873 5873 5874 5875 5875 5875 5876 5876 5877 5877 5877 5877 5877 5876 5875 5873 5872 5870 5868 5867 5866 5864 5863 5862 5861 5861 5861 5861 5861 5862
5869 5870 5869 5870 5869 5869 5870 5869 5869 5869 5868 5868 5868 5868 5869 5869 5870 5871 5871 5872 5872 5873 5874 5874 5875 5875 5876 5876 5877 5877 5877 5876 5876 5875 5873 5872 5870 5869 5867 5866 5865 5864 5863 5862 5862 5862 5862 5863 5863
5867 5867 5867 5867 5867 5867 5867 5867 5867 5867 5866 5866 5866 5867 5867 5868 5869 5869 5870 5871 5871 5872 5873 5873 5874 5875 5875 5876 5876 5877 5877 5876 5876 5875 5874 5872 5871 5869 5868 5867 5866 5865 5864 5864 5863 5863 5864 5864 5864
5865 5865 5865 5865 5865 5865 5865 5865 5865 5864 5864 5864 5865 5865 5866 5866 5867 5868 5868 5869 5870 5871 5872 5872 5874 5874 5875 5876 5876 5877 5877 5877 5876 5875 5874 5873 5871 5870 5869 5868 5867 5867 5866 5865 5865 5865 5865 5866 5866
5862 5862 5862 5862 5862 5863 5862 5863 5862 5862 5863 5863 5863 5864 5864 5864 5865 5866 5867 5868 5869 5870 5871 5872 5873 5874 5875 5876 5876 5877 5877 5877 5876 5875 5874 5873 5872 5871 5870 5869 5869 5868 5868 5867 5867 5867 5867 5867 5868
5859 5859 5860 5860 5860 5860 5861 5861 5861 5861 5861 5861 5861 5862 5862 5862 5863 5864 5866 5867 5868 5869 5871 5871 5872 5873 5874 5875 5876 5876 5877 5877 5877 5876 5875 5874 5873 5872 5871 5871 5870 5870 5870 5869 5869 5869 5869 5869 5870
5856 5856 5857 5857 5858 5858 5859 5859 5859 5859 5859 5859 5860 5860 5860 5861 5862 5863 5864 5865 5867 5868 5870 5871 5872 5873 5874 5875 5876 5876 5877 5877 5877 5877 5876 5875 5874 5873 5873 5872 5872 5872 5871 5871 5870 5870 5870 5870 5871
5853 5853 5854 5854 5855 5856 5856 5857 5858 5857 5857 5857 5858 5858 5858 5859 5860 5861 5863 5864 5865 5867 5869 5870 5871 5872 5873 5874 5875 5876 5877 5877 5877 5877 5877 5876 5876 5875 5874 5874 5873 5873 5873 5872 5872 5872 5872 5872 5872
5850 5851 5851 5851 5852 5853 5853 5854 5855 5855 5855 5855 5855 5856 5857 5858 5859 5860 5861 5863 5864 5866 5867 5869 5870 5872 5873 5874 5875 5876 5876 5877 5877 5877 5877 5877 5877 5876 5876 5875 5875 5874 5874 5874 5874 5873 5873 5873 5874
5847 5848 5848 5848 5849 5850 5850 5850 5853 5852 5852 5852 5853 5854 5855 5856 5857 5858 5860 5861 5863 5865 5866 5868 5869 5871 5872 5873 5874 5875 5876 5877 5877 5877 5878 5878 5877 5877 5877 5876 5876 5876 5875 5875 5875 5875 5875 5874 5874
5843 5845 5846 5847 5847 5847 5847 5847 5850 5849 5849 5849 5850 5851 5852 5853 5855 5856 5858 5859 5861 5863 5865 5867 5868 5870 5871 5872 5873 5874 5876 5876 5877 5877 5878 5878 5878 5878 5878 5877 5877 5877 5876 5876 5876 5876 5876 5876 5875
5840 5841 5842 5843 5843 5844 5844 5845 5846 5846 5846 5847 5848 5849 5850 5851 5852 5854 5856 5857 5859 5861 5863 5865 5867 5868 5870 5871 5872 5873 5875 5876 5877 5877 5878 5878 5878 5878 5878 5878 5878 5878 5877 5877 5877 5877 5877 5877 5877
5836 5837 5838 5839 5840 5841 5842 5842 5844 5844 5844 5845 5845 5846 5847 5848 5850 5851 5853 5855 5857 5859 5861 5863 5865 5866 5868 5869 5871 5872 5873 5875 5876 5877 5877 5878 5878 5878 5879 5878 5878 5878 5878 5878 5878 5877 5877 5877 5877
5833 5834 5835 5836 5837 5838 5838 5842 5841 5841 5842 5842 5843 5844 5845 5846 5847 5849 5851 5853 5855 5857 5859 5861 5863 5864 5866 5868 5869 5871 5872 5874 5875 5876 5877 5877 5878 5878 5878 5878 5879 5878 5878 5878 5878 5878 5878 5878 5878
5828 5829 5831 5833 5834 5834 5835 5840 5838 5838 5839 5840 5841 5842 5843 5844 5845 5847 5849 5851 5853 5854 5856 5858 5860 5862 5864 5866 5868 5869 5871 5872 5873 5875 5875 5876 5877 5877 5877 5878 5878 5878 5878 5878 5878 5878 5878 5878 5878
Wind_Speed
0 0 1 1 2 2 3 3 2 0 1 2 2 2 2 2 3 3 3 3 3 3 3 3 3 3 3 2 3 3 4 4 4 4 5 6 6 7 7 8 8 8 8 7 7 8 9 9 9
1 1 1 2 3 3 4 3 2 2 2 3 4 4 4 4 3 3 4 4 4 3 3 4 3 3 2 2 3 3 4 4 5 5 6 6 6 7 7 8 9 9 8 8 8 9 10 10 10
4 3 3 3 4 4 4 3 3 3 3 4 5 5 5 5 4 4 5 4 3 3 3 4 3 2 2 2 3 4 4 5 5 6 5 5 6 6 7 8 8 9 9 9 9 9 10 10 10
5 5 5 5 5 4 5 4 3 4 4 5 5 6 5 5 5 5 5 5 4 4 4 4 3 3 3 3 4 4 4 4 5 5 5 5 6 6 7 7 7 7 8 9 9 10 10 10 10
5 5 6 6 5 5 5 5 5 6 6 6 5 5 5 5 5 5 5 5 5 5 5 4 4 3 3 3 4 4 4 5 5 5 5 5 6 6 7 7 7 7 8 9 9 9 10 10 10
5 6 7 6 6 6 5 5 6 6 7 7 6 7 6 6 6 5 5 5 5 5 5 4 3 3 3 3 4 4 4 4 4 4 5 5 6 6 6 7 7 7 7 8 9 9 9 10 10
6 6 6 6 7 6 6 6 6 6 7 7 7 7 7 6 6 6 5 5 6 5 4 3 3 3 3 3 3 3 3 3 4 4 4 5 6 6 6 6 6 6 6 6 7 8 8 9 10
7 7 7 7 7 7 7 7 7 7 8 8 8 7 7 7 6 6 5 5 6 5 3 3 3 2 2 3 2 2 3 4 4 4 5 5 6 6 6 5 5 5 5 5 5 6 6 7 8
8 8 8 7 7 7 6 7 7 8 8 8 7 7 7 6 5 5 5 5 5 4 3 3 3 3 2 2 1 2 3 4 4 4 5 6 6 6 5 4 4 4 4 4 4 5 5 6 7
8 8 8 8 8 7 7 7 8 8 9 8 7 7 6 6 5 5 5 4 4 4 4 4 3 2 2 1 1 1 2 3 4 4 5 6 6 6 5 4 4 3 3 4 4 4 5 6 7
8 8 8 8 8 7 7 8 8 9 9 9 8 7 6 5 5 5 5 5 5 4 4 3 3 3 2 1 1 1 2 3 4 5 5 6 6 6 5 5 4 3 3 2 3 4 4 5 6
9 9 9 8 8 8 8 9 8 9 9 9 8 8 7 6 5 5 4 4 4 4 4 4 4 4 3 1 0 0 2 3 4 5 6 6 6 6 6 6 5 4 3 1 0 2 4 4 5
9 9 9 9 10 10 9 9 8 8 8 8 8 9 7 7 6 5 4 4 4 4 4 4 4 4 3 2 1 0 2 3 4 5 6 6 6 6 6 6 5 5 3 2 1 1 2 3 5
9 9 10 10 9 9 9 8 8 7 8 8 8 8 7 6 5 5 5 4 4 4 4 4 3 3 3 2 2 1 2 3 4 4 5 6 6 7 7 7 7 6 5 4 3 2 3 3 4
10 10 10 9 9 9 9 8 8 8 7 7 7 6 5 5 5 5 5 4 4 3 4 4 3 3 3 3 3 2 1 2 3 4 5 6 6 7 7 7 7 6 6 5 3 3 3 4 4
11 10 10 11 10 10 9 8 8 7 7 6 6 5 4 4 5 5 5 5 4 4 4 4 4 4 4 4 3 3 2 3 4 5 6 6 7 7 7 8 7 7 6 6 5 5 5 5 5
11 11 10 9 9 9 9 8 7 6 6 6 5 5 5 5 5 5 5 5 5 4 4 5 5 5 4 4 3 3 3 3 4 5 6 7 8 8 8 8 7 7 7 6 6 5 5 6 6
11 11 10 9 8 8 8 7 7 7 6 6 5 5 6 6 6 5 5 5 5 4 4 5 6 5 5 5 4 3 3 3 4 5 6 7 7 8 8 8 8 8 7 7 7 7 6 6 6
12 11 10 9 8 7 7 7 7 7 6 5 5 5 5 6 7 6 6 6 5 5 4 5 7 6 6 5 4 4 3 3 4 5 6 7 7 8 9 9 9 8 8 8 8 8 7 7 6
12 11 10 10 10 8 8 7 7 6 6 6 6 6 6 6 7 7 7 6 6 6 5 6 7 7 6 6 5 4 3 3 4 5 6 7 7 8 8 8 8 8 8 8 8 8 7 7 7
12 11 10 10 9 9 9 8 8 6 6 6 6 6 7 7 7 7 7 7 7 7 6 6 7 7 6 6 5 4 3 3 3 4 5 6 6 7 7 8 8 8 8 8 8 8 8 7 7
12 12 12 10 10 10 10 9 8 7 7 6 6 6 7 7 7 7 8 7 7 8 8 6 7 7 7 6 6 5 4 3 3 3 5 6 6 7 7 8 8 8 8 8 8 8 7 7 6
12 13 13 12 11 10 10 9 8 8 7 6 7 7 8 8 8 8 8 7 8 9 9 8 8 8 7 7 7 6 4 3 3 3 4 5 6 7 7 7 7 7 7 7 7 8 7 7 6
13 13 13 13 11 10 10 10 7 7 6 7 7 7 8 9 9 9 9 8 8 9 10 9 8 8 8 7 7 6 5 3 3 3 3 4 5 6 6 6 7 7 7 7 7 7 7 6 5
13 13 13 13 12 11 10 10 7 7 7 7 7 7 9 10 10 10 9 9 9 10 10 10 9 9 9 8 8 7 5 4 3 3 3 4 5 5 6 6 6 7 7 7 7 7 6 6 5
13 13 13 13 12 11 11 9 8 8 7 7 7 7 9 11 11 10 9 9 10 11 10 10 10 10 10 8 10 8 6 5 4 3 3 4 4 4 5 5 6 6 6 5 5 5 5 5 4
14 14 14 14 13 13 12 10 8 8 8 8 7 8 9 11 12 11 10 10 11 12 11 11 11 11 10 9 9 9 8 6 5 4 4 3 4 4 4 4 5 5 5 5 4 4 3 3 4
15 15 15 15 14 13 12 11 9 8 8 7 7 8 9 10 12 11 11 11 12 12 12 12 11 11 11 11 10 10 9 7 5 4 4 4 3 3 3 3 3 3 4 4 3 3 2 2 3
16 16 16 15 15 14 13 11 10 9 7 7 7 8 8 9 10 11 11 12 12 13 13 13 13 12 12 11 11 10 10 9 7 6 5 5 4 4 3 3 2 2 2 2 2 2 2 2 2
18 17 16 16 16 15 14 12 11 9 9 8 8 8 9 10 10 11 12 12 12 13 14 13 14 14 13 13 12 12 10 10 9 8 7 6 6 5 5 4 3 2 1 1 0 0 1 1 1
Wind_Direction
15 146 179 217 254 248 255 266 260 237 332 305 307 303 280 295 310 304 295 290 289 301 313 320 318 321 323 313 308 312 299 302 308 300 288 280 275 273 272 271 268 266 261 257 252 245 240 237 236
292 276 237 237 257 265 263 265 267 296 298 295 292 293 286 286 294 294 291 287 292 296 306 311 306 304 301 311 314 320 313 309 307 300 289 281 275 274 276 273 268 262 260 257 252 248 244 240 238
287 278 262 265 267 269 261 268 281 282 279 283 284 286 283 278 281 285 285 283 296 300 300 301 292 280 282 307 315 314 312 309 302 299 293 285 280 277 275 274 268 261 259 257 252 248 244 239 236
284 271 273 275 270 267 262 264 269 279 279 282 285 288 281 277 280 282 284 281 288 292 295 297 290 269 265 290 307 309 307 303 300 301 295 288 287 281 277 274 271 266 261 259 252 249 244 240 234
278 274 272 267 268 270 268 265 264 271 285 285 289 294 286 284 281 282 283 285 286 286 284 290 293 274 269 275 295 306 304 305 304 305 304 302 299 293 284 279 275 271 267 261 256 252 246 241 234
284 274 276 266 268 267 268 270 266 271 279 282 287 291 287 286 283 279 283 285 289 288 284 291 283 275 268 280 286 300 309 308 309 313 314 312 306 302 293 288 281 277 276 266 256 251 248 242 235
281 281 282 276 273 270 269 276 278 273 278 281 284 289 294 289 280 273 277 281 285 283 281 275 273 276 288 283 289 306 321 325 321 322 327 327 321 315 305 299 288 284 279 269 256 252 247 239 234
275 277 277 277 274 270 271 278 285 282 282 284 282 285 289 290 283 274 273 277 279 272 266 268 269 270 271 269 281 327 336 333 338 341 342 336 328 322 312 304 296 288 280 273 257 248 244 236 230
270 275 277 279 277 276 279 282 282 283 284 288 284 282 286 287 285 278 269 270 270 261 260 271 267 270 257 249 289 338 341 344 351 351 346 339 335 333 325 316 312 294 280 278 260 248 240 233 227
270 274 275 278 276 279 285 286 285 284 286 286 285 281 281 278 275 268 262 257 255 250 248 259 255 273 261 254 241 342 354 357 358 353 351 348 349 346 341 338 325 308 288 282 262 241 232 228 226
268 273 277 278 276 279 282 285 287 287 286 284 283 280 276 273 270 262 256 250 244 241 244 246 243 246 235 224 216 284 342 358 4 358 357 357 358 356 354 357 350 332 315 298 256 234 220 217 221
265 269 272 276 275 279 288 287 289 288 284 282 279 276 280 271 268 254 253 252 244 239 245 245 244 236 211 197 213 282 349 0 4 7 6 4 7 6 10 11 4 358 355 351 243 208 205 202 209
263 266 268 272 273 275 283 287 287 287 286 286 278 273 278 276 269 248 246 248 240 234 233 235 231 215 192 182 181 198 21 14 7 10 13 15 18 16 18 16 16 19 33 54 77 122 173 180 187
266 267 270 271 274 276 279 281 281 287 288 286 280 275 272 263 260 244 239 243 232 227 223 215 206 196 179 172 189 138 60 36 15 15 23 22 24 23 24 23 26 35 44 55 74 99 119 137 159
265 265 268 269 276 277 277 279 281 285 287 287 281 274 256 247 245 238 240 237 230 220 213 205 195 187 177 169 154 128 95 38 27 28 28 27 27 25 27 29 35 41 48 57 77 96 103 118 136
262 263 263 269 272 275 274 276 278 283 285 286 282 267 246 231 229 233 234 226 224 217 210 201 194 186 175 168 152 122 93 57 40 38 37 34 34 33 35 37 42 48 56 68 83 91 102 114 122
260 262 265 268 269 269 272 273 270 275 282 278 267 260 246 231 224 230 227 220 216 209 207 197 192 184 181 169 138 108 88 63 51 47 43 42 41 41 44 46 50 54 61 71 85 96 102 108 113
256 259 263 264 264 265 270 270 268 269 271 270 256 247 241 227 219 220 214 217 207 204 206 197 186 178 170 163 140 118 96 70 58 51 49 45 45 49 50 52 54 60 67 76 85 95 103 107 110
258 259 262 263 258 259 264 263 261 266 263 256 246 240 231 219 212 210 211 209 199 200 198 188 187 184 170 165 154 132 111 83 67 58 52 50 53 55 54 56 61 66 73 80 85 89 95 103 105
258 257 260 262 261 262 264 265 263 261 262 255 245 232 230 220 213 210 211 205 196 197 195 187 184 181 176 169 152 134 116 91 74 61 55 54 61 64 61 62 67 71 76 79 83 87 90 100 103
257 256 256 257 255 259 260 262 264 261 263 254 240 234 226 220 208 205 206 205 198 197 195 188 184 182 177 173 160 144 125 105 83 67 62 61 65 68 67 66 71 77 78 79 82 86 92 101 105
255 255 256 255 255 257 259 258 265 261 258 251 242 234 225 221 208 205 204 200 198 199 196 192 182 182 186 184 174 164 146 127 102 76 69 69 72 73 74 75 77 79 79 79 79 83 92 101 107
250 251 255 257 257 257 256 256 261 260 256 247 240 232 225 215 207 205 205 200 197 197 197 197 190 188 189 187 181 175 158 140 121 99 84 85 83 80 80 80 81 81 81 82 82 82 90 100 107
245 249 252 255 254 254 258 258 254 257 252 250 241 230 217 216 210 205 207 203 201 197 199 200 198 195 191 190 184 178 163 150 139 125 110 102 93 86 83 81 82 83 83 83 87 88 91 98 103
244 248 252 252 251 253 258 262 257 252 249 246 235 226 213 217 213 208 210 207 206 201 203 202 203 201 197 195 185 177 171 162 147 141 133 119 108 97 91 86 87 88 87 87 87 87 87 92 100
244 245 249 249 252 254 257 263 255 249 248 243 232 226 215 214 211 210 212 210 207 204 206 206 207 206 201 196 187 182 179 171 163 153 144 133 124 111 100 92 92 91 88 86 85 85 86 89 87
240 241 245 247 250 255 259 258 246 245 248 246 235 224 217 212 210 212 214 214 211 208 208 208 211 210 206 201 189 186 184 182 180 170 163 153 144 132 117 107 98 91 86 85 85 86 84 82 79
240 240 242 244 249 255 259 259 251 246 241 238 233 221 217 213 211 211 213 215 214 212 211 211 214 213 211 207 199 195 192 191 191 187 182 177 167 157 153 140 121 106 97 92 89 88 89 88 83
239 238 240 244 247 253 258 259 254 246 242 238 236 223 215 214 216 213 215 216 217 214 214 216 216 216 213 210 207 201 199 202 205 203 201 200 194 187 185 177 163 141 120 106 91 85 87 90 83
237 238 239 242 246 249 253 254 250 245 239 236 233 227 218 211 215 217 217 219 221 219 218 219 218 217 215 214 210 207 204 204 206 207 209 211 209 209 209 203 199 188 179 168 161 121 79 82 76